Wolf Point, MT

6:57 AM MDT on May 24, 2018 (GMT -0600)
Clayton

Weather History for KOLF - April, 2013

Change the Weather History Date:

Saturday, April 6, 2013

  Actual Average Record
Temperature  
Mean Temperature 40 °F -  
Max Temperature 48 °F 55 °F 72 °F (2017)
Min Temperature 32 °F 26 °F 5 °F (2018)
Degree Days  
Heating Degree Days 25    
Cooling Degree Days 0    
Moisture  
Dew Point 34 °F    
Average Humidity 79    
Maximum Humidity 93    
Minimum Humidity 63    
Precipitation  
Precipitation 0.00 in 0.02 in 0.15 in (2012)
Month to date precipitation 0.01 0.13  
Year to date precipitation 0.74 1.11  
Sea Level Pressure  
Sea Level Pressure 29.81 in    
Wind  
Wind Speed 6 mph (NNE)    
Max Wind Speed 12 mph    
Max Gust Speed -    
Visibility 9 miles    
Events      
T = Trace of Precipitation, MM = Missing Value Source: NWS Daily Summary

Daily Weather History Graph

Daily Weather History Graph

Search for Another Location

Airport or City:

Astronomy

Apr. 06, 2013 Rise Set
Actual Time 6:29 AM MDT 7:40 PM MDT
Civil Twilight 5:57 AM MDT 8:12 PM MDT
Nautical Twilight 5:19 AM MDT 8:50 PM MDT
Astronomical Twilight 4:38 AM MDT 9:31 PM MDT
Moon 4:31 AM MDT (4/6) 3:57 PM MDT (4/6)
Length of Visible Light 14h 14m
Length of Day
13h 10m
Waning Crescent, 14% of the Moon is Illuminated
Apr 6
Waning Crescent
Apr 10
New
Apr 18
First Quarter
Apr 25
Full
May 2
Last Quarter

Hourly Weather History & Observations

Time (MDT) Temp. Windchill Dew Point Humidity Pressure Visibility Wind Dir Wind Speed Gust Speed Precip Events Conditions
12:05 AM 51.8 °F - 41.0 °F 67% 29.65 in 10.0 mi NNW 9.2 mph - 0.00 in   Overcast
12:53 AM 48.0 °F - 39.9 °F 74% 29.69 in 10.0 mi West 6.9 mph - 0.00 in   Overcast
1:53 AM 46.0 °F 41.9 °F 39.9 °F 79% 29.70 in 10.0 mi West 8.1 mph - N/A   Mostly Cloudy
2:53 AM 44.1 °F - 39.9 °F 85% 29.71 in 10.0 mi Calm Calm - N/A   Overcast
3:53 AM 43.0 °F - 37.9 °F 82% 29.72 in 10.0 mi Calm Calm - N/A   Scattered Clouds
4:53 AM 42.1 °F - 36.0 °F 79% 29.74 in 10.0 mi Calm Calm - N/A   Partly Cloudy
5:53 AM 37.9 °F 35.5 °F 34.0 °F 86% 29.76 in 10.0 mi North 3.5 mph - N/A   Clear
6:53 AM 35.1 °F 28.6 °F 33.1 °F 92% 29.81 in 8.0 mi North 8.1 mph - N/A   Scattered Clouds
7:01 AM 35.6 °F 28.6 °F 33.8 °F 93% 29.77 in 8.0 mi North 9.2 mph - N/A   Mostly Cloudy
7:53 AM 36.0 °F 28.5 °F 33.1 °F 89% 29.84 in 9.0 mi North 10.4 mph - N/A   Overcast
8:53 AM 36.0 °F 30.3 °F 32.0 °F 86% 29.85 in 10.0 mi NE 6.9 mph - N/A   Overcast
9:07 AM 37.4 °F 32.8 °F 32.0 °F 81% 29.81 in 10.0 mi NE 5.8 mph - N/A   Overcast
9:39 AM 37.4 °F 32.8 °F 32.0 °F 81% 29.82 in 10.0 mi North 5.8 mph - N/A   Overcast
9:53 AM 37.0 °F 31.0 °F 32.0 °F 82% 29.86 in 10.0 mi North 8.1 mph - N/A   Overcast
10:28 AM 37.4 °F 32.8 °F 30.2 °F 75% 29.83 in 10.0 mi North 5.8 mph - N/A   Overcast
10:53 AM 39.0 °F 35.7 °F 30.9 °F 73% 29.87 in 10.0 mi NNW 4.6 mph - N/A   Overcast
11:53 AM 39.0 °F - 32.0 °F 76% 29.88 in 10.0 mi Calm Calm - N/A   Overcast
12:53 PM 41.0 °F 38.0 °F 33.1 °F 73% 29.87 in 10.0 mi NW 4.6 mph - N/A   Overcast
1:53 PM 43.0 °F - 34.0 °F 71% 29.85 in 10.0 mi Calm Calm - N/A   Overcast
2:53 PM 44.1 °F 42.5 °F 34.0 °F 68% 29.85 in 10.0 mi ESE 3.5 mph - N/A   Overcast
3:53 PM 45.0 °F 42.6 °F 34.0 °F 65% 29.84 in 10.0 mi NE 4.6 mph - N/A   Overcast
4:53 PM 46.0 °F 41.9 °F 34.0 °F 63% 29.83 in 10.0 mi ENE 8.1 mph - N/A   Overcast
5:38 PM 44.6 °F 39.2 °F 35.6 °F 71% 29.80 in 10.0 mi East 10.4 mph - N/A   Scattered Clouds
5:53 PM 45.0 °F 39.7 °F 35.1 °F 68% 29.84 in 10.0 mi East 10.4 mph - N/A   Partly Cloudy
6:53 PM 42.1 °F 35.7 °F 34.0 °F 73% 29.84 in 10.0 mi East 11.5 mph - N/A   Clear
7:53 PM 39.9 °F 33.9 °F 34.0 °F 79% 29.86 in 8.0 mi ENE 9.2 mph - N/A   Mostly Cloudy
8:53 PM 37.0 °F 31.0 °F 33.1 °F 86% 29.86 in 6.0 mi ENE 8.1 mph - N/A   Clear
9:53 PM 34.0 °F 27.2 °F 30.9 °F 89% 29.87 in 5.0 mi ENE 8.1 mph - N/A   Clear
10:53 PM 32.0 °F 24.8 °F 30.0 °F 92% 29.87 in 4.0 mi ENE 8.1 mph - N/A   Clear
11:53 PM 33.1 °F 26.9 °F 30.9 °F 92% 29.85 in 3.0 mi East 6.9 mph - N/A   Partly Cloudy